sat.trackr.live / text

‹ back to catalog

STARLINK-3085

NORAD 49156 · 2021-082AC

PAYLOAD ACTIVE UNKNOWN

§ Identity

Operator
Country
US
Launch date
2021-09-14
Launch site
AFWTR
Launch vehicle
Mass (kg)
RCS (m²)

Purposes: comms

External: N2YO · Heavens-Above · Gunter

§ Orbital elements

Epoch: 2026-05-25T04:23:19.769280Z

Period
96.11 min
Inclination
70.0005°
Eccentricity
0.0002938
Mean motion
14.98330871 rev/d
Perigee alt
570.0 km
Apogee alt
574.1 km
Semi-major
6,950.2 km
B*
5.6095e-5
RAAN
61.5831°
Arg perigee
267.5969°
Mean anomaly
92.4853°
Rev number
25,950

§ Raw data

STARLINK-30851 49156U 21082AC  26145.18286770  .00000576  00000+0  56095-4 0  99912 49156  70.0005  61.5831 0002938 267.5969  92.4853 14.98330871259505

JSON: /api/v1/satellites/49156 · /tle

For live sub-satellite position, see the globe view (requires WebGL).

§ Visibility from observer

Set your observer location to see the next 7 days of passes ≥ 10°. The values pass through the URL so the page stays shareable.

No JS? Fill the form by hand. The geolocation button needs JavaScript.